Content
SEND FEEDBACK

Daily
Averages
Monthly
Summary
France

OISSEL, FRANCE


Home > Europe > France
Elevation: 515 feet     Latitude: 49 22N     Longitude: 001 10E

WEATHER
 
SELECT A DAY
Number of Records: 172,782;   Date Range: 7/1/96 - 7/28/14
 
SHARE

PRINT THIS DATA

[ ← Previous Day ]
WEATHER ALMANAC - FEBRUARY 9, 2013
[ Next Day → ]
[ °C ]   °F
Weather ElementAverageHighLow
Temperature34.1 °F35.6 °F (7:30 am)32 °F (1:30 am)
Dewpoint30.8 °F33.8 °F (7:30 am)28.4 °F (1:00 am)
Humidity87.6 %100 % (9:30 am)78 % (1:00 am)
Barometer30.08 in30.16 in (1:00 pm)29.98 in (10:30 pm)
Wind Speed6.2 mph10.4 mph (9:00 am)
Weather ElementAverage
Visibility5.7 mi
Wind DirectionSSW (196.5 °)

Weather ElementTotal
Precipitation---
Heating Degree Days31.2 (Base 65)
Averaged from 51 records on February 9, 2013
WEATHER CONDITIONS BREAKOUT
WIND DIRECTION BREAKOUT
WEATHER BY HOUR - FEBRUARY 9, 2013
[ °C ]   °F
Local TimeTemperatureDewpointHumidityBarometerVisibilityWind DirectionWind SpeedGust SpeedPrecipitationEventsConditions
12:30 AM33.8 °F30.2 °F87 %30.09 in6.2 miWest (280°)4.6 mphOvercast
1:00 AM33.0 °F29.0 °F78 %30.14 in12.0 miNorth (350°)4.6 mphClear
1:00 AM33.8 °F28.4 °F81 %30.09 in6.2 miNorth (350°)4.6 mphMostly Cloudy
1:30 AM32.0 °F28.4 °F87 %30.09 in6.2 miNNW (340°)5.8 mphMostly Cloudy
2:00 AM33.8 °F30.2 °F87 %30.09 in6.2 miNNW (340°)6.9 mphOvercast
2:30 AM33.8 °F30.2 °F87 %30.09 in6.2 miNNW (330°)8.1 mphMostly Cloudy
3:00 AM33.8 °F32.0 °F93 %30.09 inNNW (340°)6.9 mphRainLight Rain
3:30 AM33.8 °F32.0 °F93 %30.09 in3.7 miNNW (340°)6.9 mphMostly Cloudy
4:00 AM33.8 °F32.0 °F93 %30.06 in4.3 miNNW (340°)9.2 mphMostly Cloudy
4:30 AM33.8 °F32.0 °F93 %30.06 in3.7 miNNW (340°)9.2 mphOvercast
5:00 AM33.8 °F32.0 °F93 %30.06 in4.3 miNNW (340°)8.1 mphMostly Cloudy
5:30 AM33.8 °F32.0 °F93 %30.06 in4.3 miNNW (340°)6.9 mphOvercast
6:00 AM33.8 °F32.0 °F93 %30.06 in3.7 miNNW (340°)3.5 mphMostly Cloudy
6:30 AM33.8 °F32.0 °F93 %30.06 in3.1 miNorth (360°)4.6 mphMostly Cloudy
7:00 AM34.0 °F33.0 °F93 %30.12 in4.0 miNorth5.8 mphOvercast
7:00 AM33.8 °F32.0 °F93 %30.06 inNorth (360°)5.8 mphRainLight Rain
7:30 AM35.6 °F33.8 °F93 %30.09 in4.3 miNorth (360°)5.8 mphOvercast
8:00 AM33.8 °F32.0 °F93 %30.09 in3.1 miNorth (360°)4.6 mphMostly Cloudy
8:30 AM33.8 °F32.0 °F93 %30.09 inNorth (360°)4.6 mphMostly Cloudy
9:00 AM33.8 °F32.0 °F93 %30.09 inNorth (360°)10.4 mphOvercast
9:30 AM32.0 °F32.0 °F100 %30.09 in3.1 miNorth (360°)10.4 mphOvercast
10:00 AM32.0 °F32.0 °F100 %30.12 inNorth (360°)5.8 mphOvercast
10:30 AM33.8 °F32.0 °F93 %30.12 in3.7 miNorth (360°)5.8 mphOvercast
11:00 AM33.8 °F32.0 °F93 %30.12 in4.3 miNorth (360°)4.6 mphOvercast
11:30 AM33.8 °F30.2 °F87 %30.12 in5.0 miNorth (360°)3.5 mphOvercast
12:00 PM33.8 °F30.2 °F87 %30.15 in6.2 miVariable4.6 mphOvercast
12:30 PM33.8 °F30.2 °F87 %30.12 in6.2 miNorth (360°)4.6 mphOvercast
1:00 PM35.0 °F31.0 °F78 %30.16 in6.0 miNorth4.6 mphOvercast
1:00 PM33.8 °F30.2 °F87 %30.12 in6.2 miNorth (360°)4.6 mphOvercast
1:30 PM35.6 °F32.0 °F87 %30.12 in6.2 miNorth (360°)6.9 mphOvercast
2:00 PM35.6 °F30.2 °F81 %30.12 in6.2 miVariable5.8 mphOvercast
2:30 PM35.6 °F32.0 °F87 %30.09 in6.2 miNorth (10°)3.5 mph
3:00 PM35.6 °F30.2 °F81 %30.09 in6.2 miVariable4.6 mphOvercast
3:30 PM35.6 °F30.2 °F81 %30.09 in6.2 miNorth (10°)4.6 mphOvercast
4:00 PM35.6 °F30.2 °F81 %30.09 in6.2 miSouth (190°)5.8 mphOvercast
4:30 PM35.6 °F30.2 °F81 %30.06 in6.2 miSouth (190°)5.8 mphOvercast
5:00 PM35.6 °F30.2 °F81 %30.06 in6.2 miSouth (190°)5.8 mphOvercast
5:30 PM35.6 °F30.2 °F81 %30.06 in6.2 miVariable4.6 mph
6:00 PM33.8 °F30.2 °F87 %30.06 in6.2 miVariable4.6 mphOvercast
6:30 PM33.8 °F30.2 °F87 %30.06 in6.2 miVariable3.5 mphOvercast
7:00 PM34.0 °F30.0 °F80 %30.09 in12.0 miNorth (10°)5.8 mphClear
7:00 PM33.8 °F30.2 °F87 %30.04 in6.2 miNorth (10°)5.8 mph
7:30 PM33.8 °F30.2 °F87 %30.04 in6.2 miVariable3.5 mph
8:00 PM33.8 °F30.2 °F87 %30.04 in6.2 miVariable5.8 mph
8:30 PM33.8 °F30.2 °F87 %30.04 in6.2 miVariable8.1 mph
9:00 PM33.8 °F28.4 °F81 %30.01 in6.2 miVariable9.2 mphOvercast
9:30 PM33.8 °F30.2 °F87 %30.01 in6.2 miVariable9.2 mph
10:00 PM33.8 °F28.4 °F81 %30.01 in6.2 miVariable9.2 mphOvercast
10:30 PM33.8 °F28.4 °F81 %29.98 in6.2 miVariable9.2 mphOvercast
11:00 PM33.8 °F30.2 °F87 %29.98 in6.2 miVariable9.2 mphOvercast
11:30 PM33.8 °F30.2 °F87 %29.98 in5.6 miVariable9.2 mphRainRain
Hourly data recorded from LFOP, located miles away from Oissel, France







STORIES FROM OUR PARTNERS